Theta_e
315 315 316 315 315 315 315 315 314 315 316 316 316 315 314 312 310 309 307 305 304 303 304 305 305 306 307 307 307 307 306 304 301 299 298 297 296 295 294 294 293 293
314 315 314 313 314 314 314 313 312 313 313 313 313 313 311 310 308 307 305 304 304 304 304 305 306 307 307 307 307 306 305 302 299 297 295 294 294 293 293 293 292 292
314 315 315 313 313 313 312 311 311 311 311 311 311 310 309 308 306 305 304 303 303 304 305 306 307 307 307 307 306 305 302 300 297 296 294 294 293 293 293 292 292 291
314 315 314 314 313 312 310 310 310 309 309 309 309 308 307 305 304 303 303 303 303 305 306 306 306 306 306 305 304 302 300 298 296 295 293 293 293 292 292 292 291 291
314 314 313 313 311 310 309 309 309 309 308 308 307 306 304 303 303 302 302 303 304 305 305 306 306 306 305 303 302 300 298 296 294 293 292 292 292 292 291 291 291 291
313 313 312 311 310 309 309 308 308 308 307 306 305 304 303 302 302 302 303 304 305 305 305 306 306 305 303 301 299 296 294 292 292 292 292 292 291 291 291 291 291 291
313 312 311 311 310 309 308 308 307 306 306 305 304 303 302 302 301 302 304 305 305 305 306 305 304 303 300 298 295 292 292 291 291 291 291 291 291 291 291 291 291 291
311 311 311 310 309 308 307 307 306 305 304 302 302 301 301 300 301 303 304 305 305 305 304 303 302 299 295 293 292 291 291 291 291 291 291 291 291 291 291 291 291 290
311 311 310 310 309 308 307 306 304 303 302 301 300 300 298 299 302 304 304 305 305 304 303 301 298 294 292 291 291 290 290 290 290 290 290 290 290 290 291 290 290 290
310 310 310 310 308 308 307 305 303 302 301 299 298 297 298 300 303 304 304 304 304 303 301 297 293 291 291 290 290 290 290 290 290 290 290 290 290 290 290 290 290 290
310 311 311 310 308 307 306 304 302 300 299 298 296 296 299 302 303 304 304 304 304 302 298 293 291 290 290 290 290 290 290 290 290 290 290 290 290 290 290 290 289 289
310 311 311 310 308 306 305 303 301 299 297 296 296 297 301 303 304 304 304 304 303 298 293 290 290 290 290 290 290 289 289 290 290 289 289 290 290 290 289 289 289 289
310 311 310 309 308 306 305 303 300 298 297 297 297 300 302 304 304 304 304 303 299 294 291 290 290 289 290 290 289 289 289 289 289 289 289 289 289 289 289 289 289 288
310 310 309 308 307 305 303 302 300 298 297 298 300 302 304 304 304 304 304 301 295 292 291 290 290 290 290 289 289 289 289 289 289 289 289 289 289 289 289 289 288 288
309 309 309 308 306 304 303 301 300 299 298 300 302 303 304 304 304 303 301 297 292 291 291 290 290 290 290 289 289 290 290 290 289 289 289 289 289 289 289 288 288 288
308 309 308 307 306 304 303 302 300 299 299 301 303 303 303 303 303 301 298 293 291 291 291 291 291 291 290 289 289 289 289 289 289 289 289 289 289 289 289 288 288 287
309 309 308 307 306 305 304 302 301 300 301 302 303 303 303 303 302 300 296 292 291 291 291 291 291 291 290 289 289 289 290 289 289 289 289 289 289 289 289 288 287 287
309 310 309 308 307 306 305 303 301 301 301 302 303 303 302 303 302 299 294 291 291 291 291 291 291 290 289 289 289 290 290 290 290 290 289 290 290 289 288 288 287 286
310 310 309 309 308 306 304 302 301 301 302 303 303 302 302 302 302 299 294 291 291 291 291 291 291 290 289 289 290 290 290 290 289 289 290 290 289 289 288 287 287 287
309 309 309 308 306 305 303 302 302 302 302 302 302 302 302 302 302 299 295 292 291 291 291 291 291 290 289 290 290 290 289 289 289 289 289 289 288 288 287 287 287 287
308 308 307 306 305 304 303 303 303 303 302 302 301 302 302 303 302 300 295 292 291 291 291 291 291 290 289 289 289 289 289 289 289 288 288 288 287 287 287 287 286 286
308 308 307 306 305 305 304 303 303 303 302 302 301 302 302 302 302 299 295 292 291 291 291 291 291 289 289 289 289 288 288 289 289 288 287 287 287 287 286 286 285 285
309 308 307 306 305 305 305 304 304 304 303 302 302 302 302 302 302 299 295 291 290 290 291 291 291 289 288 288 288 288 288 289 289 288 288 288 287 287 286 286 285 285
308 307 306 305 305 306 306 305 305 304 303 302 302 302 302 302 302 299 294 290 289 290 290 290 290 289 288 287 288 287 288 289 289 288 288 288 287 287 286 285 285 285
305 305 305 306 307 307 307 306 305 304 302 301 301 301 301 301 300 298 295 291 290 289 289 289 289 288 287 287 287 286 287 288 289 288 287 288 287 287 286 285 285 284
305 306 307 308 308 307 306 305 304 302 302 301 301 300 300 300 299 298 295 292 290 289 289 289 289 288 287 286 286 286 286 287 288 288 288 288 287 287 286 285 285 285
Wind_Speed
33 32 32 32 30 29 29 28 27 27 26 23 22 22 23 23 23 23 23 22 21 20 19 19 19 19 17 15 15 14 14 12 11 12 13 13 14 16 16 16 15 15
32 32 32 30 28 28 27 26 25 25 23 22 22 22 23 22 22 22 21 21 20 21 21 19 18 17 15 14 15 14 13 12 11 11 12 14 15 16 15 15 14 14
31 31 31 29 27 27 26 25 24 23 21 22 22 22 22 21 21 21 21 21 21 20 19 17 16 15 15 15 15 14 13 12 12 13 14 15 16 16 15 14 14 14
30 30 30 29 28 26 25 24 23 23 22 22 22 22 21 21 21 22 22 22 21 19 17 17 16 16 16 16 15 15 14 14 14 15 15 16 16 15 15 14 14 14
29 29 29 29 28 26 24 23 22 23 23 22 22 22 22 22 22 22 22 21 20 19 18 17 17 17 17 17 15 15 14 14 15 16 16 15 15 15 15 15 14 14
28 29 29 28 26 25 24 23 23 23 22 22 23 23 23 22 22 22 22 21 19 18 17 17 18 18 17 16 14 14 14 14 15 15 15 15 15 14 14 14 14 14
28 28 28 26 25 25 24 24 23 22 22 23 23 23 23 22 23 22 21 19 18 17 17 18 18 17 16 15 14 14 15 15 15 15 14 15 15 14 14 14 14 14
28 28 27 26 26 26 25 24 23 23 24 24 24 24 23 23 23 22 20 19 18 18 18 18 17 16 15 14 14 14 15 15 14 14 14 15 14 14 14 14 14 14
29 28 27 27 28 27 27 26 26 26 26 26 26 25 25 25 23 21 20 20 20 20 19 18 17 16 15 15 14 14 14 14 14 15 15 15 14 14 14 14 14 14
30 29 29 29 30 29 29 28 28 28 28 28 28 27 27 25 24 22 22 21 21 21 19 18 18 17 16 16 15 15 15 15 15 15 15 15 15 15 14 14 14 14
31 30 31 31 31 30 30 30 30 30 31 30 30 29 28 26 24 23 23 23 22 21 19 19 18 17 17 16 16 15 16 16 16 16 16 16 15 15 15 15 14 14
32 32 33 33 33 32 32 32 32 32 32 31 30 29 27 25 24 23 23 23 22 20 20 20 19 18 17 16 16 16 16 16 16 16 16 16 16 16 15 15 15 14
34 34 35 35 35 35 35 34 33 32 32 31 30 29 27 25 24 24 23 23 21 21 21 20 19 18 18 17 17 17 17 17 17 17 17 17 17 16 16 16 15 15
35 35 36 37 37 36 35 33 33 33 33 32 31 29 28 26 25 24 24 23 23 22 22 21 20 20 19 19 19 18 18 18 18 19 19 18 17 17 17 16 16 16
36 37 38 38 38 36 35 34 35 35 34 33 32 30 28 27 26 26 26 25 24 23 23 22 22 21 20 20 19 19 20 20 20 20 19 19 18 17 17 17 17 16
38 39 40 39 38 36 35 36 36 36 35 33 32 30 29 28 28 28 27 26 25 24 24 23 22 21 21 21 21 21 21 21 21 21 20 19 19 18 18 18 17 17
40 41 41 40 38 37 37 37 37 36 35 34 33 32 31 30 30 29 28 27 26 25 25 24 23 22 22 22 22 23 23 23 23 22 21 20 19 19 19 19 18 18
42 41 41 40 39 39 38 38 38 38 36 35 34 33 32 31 30 30 29 28 28 27 26 25 24 23 23 23 23 24 25 24 24 23 22 21 20 20 20 19 19 18
44 44 42 42 43 42 41 40 39 39 37 37 35 34 33 32 31 31 30 29 29 29 28 26 26 25 25 24 25 26 26 26 25 24 23 22 22 21 21 20 20 20
46 46 45 45 43 41 40 39 38 38 38 37 36 35 34 33 32 32 32 32 31 31 29 28 27 27 26 26 27 28 28 28 27 26 24 24 24 23 22 21 21 22
47 46 45 43 40 39 39 39 38 38 38 37 37 36 35 34 34 34 34 34 33 32 31 30 29 28 28 28 29 30 30 30 29 28 27 26 26 25 24 23 23 24
46 45 44 42 41 41 41 40 39 39 39 37 37 36 36 35 35 36 36 35 35 34 33 32 31 30 30 30 31 32 32 31 31 30 29 28 27 26 26 26 26 26
47 46 46 45 45 44 43 41 40 40 39 38 38 38 37 37 38 38 38 38 37 36 35 34 33 32 32 32 33 34 34 34 34 32 31 29 28 28 28 28 28 28
50 49 49 48 47 45 43 42 41 41 39 39 39 39 39 38 39 39 39 39 39 38 37 36 34 33 33 34 35 36 37 37 36 34 31 30 30 30 31 31 30 29
51 50 49 47 46 45 44 43 41 40 40 40 39 39 39 38 39 40 41 41 40 39 38 37 36 35 35 36 37 38 39 39 37 35 33 32 33 33 33 33 33 31
50 49 48 47 47 45 43 41 41 40 40 40 40 40 39 39 40 41 42 42 42 41 40 40 39 38 37 38 39 40 41 41 39 37 36 35 35 36 35 35 34 33
Wind_Direction
223 224 226 227 229 232 233 235 236 235 235 235 237 240 239 235 229 225 221 216 211 209 208 210 213 217 221 224 227 229 228 224 221 222 224 229 233 238 240 240 240 239
221 223 226 226 227 228 229 231 232 234 236 236 235 235 233 229 225 220 215 210 206 204 204 208 212 218 223 228 232 233 231 224 220 223 227 232 235 238 239 238 239 238
222 223 224 224 224 225 225 227 229 231 232 232 233 231 227 223 218 213 209 205 204 204 206 211 217 224 228 231 232 228 224 219 220 225 229 232 235 236 237 237 238 239
222 222 221 221 222 223 223 224 224 224 224 226 228 225 220 214 209 207 205 204 204 206 210 215 220 225 227 226 223 219 218 218 221 225 227 230 232 233 235 236 237 239
220 221 221 220 220 220 219 219 220 220 220 220 219 215 211 207 205 204 204 205 207 209 213 219 223 225 224 222 220 219 220 221 223 225 226 228 230 231 234 236 238 240
218 221 222 220 218 216 213 211 213 216 217 215 212 209 206 203 203 205 207 209 211 215 220 224 226 226 225 223 221 220 220 221 224 226 227 230 231 232 234 237 240 243
217 220 220 217 214 212 209 207 208 210 212 210 207 206 204 202 203 207 210 213 217 222 225 226 227 228 227 223 218 217 219 223 227 229 230 232 233 234 236 239 242 244
214 216 215 212 209 206 205 204 205 206 207 206 204 203 203 203 207 210 213 217 221 224 225 225 227 226 222 218 216 219 223 227 230 232 234 235 236 238 239 242 244 246
211 212 210 208 205 203 202 201 201 202 202 203 203 203 204 206 210 213 216 220 223 224 224 225 224 220 216 215 218 222 226 230 233 234 237 239 240 241 242 244 246 248
208 207 206 206 203 201 200 200 199 199 200 202 203 205 207 209 212 215 218 223 225 225 225 223 220 216 215 215 219 223 226 230 234 236 239 241 241 242 243 244 247 249
205 204 204 205 203 200 200 199 199 199 200 202 204 206 209 212 215 218 221 224 226 226 223 220 217 215 217 219 221 224 227 231 234 237 239 241 241 242 243 245 248 250
203 204 204 204 202 201 200 200 200 200 201 204 207 210 212 216 220 222 225 228 227 222 218 217 216 216 219 222 224 227 230 233 235 238 240 241 242 243 244 246 248 251
204 204 204 204 202 202 202 201 201 202 203 206 209 213 217 220 223 226 228 230 227 221 217 216 217 218 221 222 225 229 232 235 237 239 240 242 242 243 244 247 249 251
204 204 204 204 203 203 203 202 202 204 206 209 212 215 219 222 224 227 229 227 223 219 218 217 218 220 222 224 227 230 233 235 237 239 240 242 242 243 245 248 250 251
203 203 205 206 205 204 203 203 205 207 208 211 214 217 220 222 224 226 227 224 220 219 218 218 220 222 223 226 230 233 235 237 237 239 240 241 243 245 247 248 250 251
202 203 205 206 206 205 204 205 207 209 211 214 217 218 220 221 223 224 224 222 220 219 220 221 222 224 225 228 231 234 236 237 237 239 240 242 244 246 247 248 249 248
202 204 206 207 206 206 206 207 209 211 214 216 218 219 221 222 224 225 224 222 221 220 222 224 225 226 227 228 231 234 236 236 237 238 239 242 244 246 247 247 247 246
201 204 207 208 208 208 207 209 211 213 216 218 219 221 222 224 226 227 225 223 222 221 222 224 226 227 228 230 233 236 238 238 238 239 240 242 244 245 246 245 245 246
202 205 207 208 209 209 209 210 212 215 217 219 220 222 224 226 228 228 227 226 225 224 224 225 226 227 228 231 235 237 239 239 239 239 240 242 243 243 244 245 246 247
206 208 210 212 212 213 213 214 215 217 219 221 222 223 225 227 229 230 229 228 227 226 226 227 228 228 229 232 235 237 238 239 239 238 239 241 242 242 243 245 246 247
209 212 214 216 217 217 218 218 219 220 222 224 225 226 227 229 231 231 230 230 230 228 228 229 229 229 230 233 235 237 238 238 238 238 237 239 240 241 242 244 244 245
212 214 217 218 219 220 221 221 221 222 224 226 227 229 230 231 232 232 232 232 232 230 230 230 230 229 230 233 236 238 239 239 239 238 237 238 240 242 242 243 243 243
215 217 219 219 220 221 222 223 223 225 226 227 229 231 232 232 233 232 232 233 233 232 232 232 231 231 231 233 236 238 240 241 240 238 239 241 242 244 244 244 244 245
217 220 221 222 222 223 224 225 226 227 228 229 231 233 234 234 234 234 234 234 234 234 234 235 235 234 233 235 237 238 240 242 242 240 240 242 244 244 244 244 245 244
220 222 224 225 226 226 227 228 230 231 231 232 234 236 237 236 236 236 237 237 238 237 237 237 237 236 235 236 238 239 241 244 244 242 241 242 243 244 243 244 244 244
224 225 226 228 230 230 231 233 234 235 235 236 237 238 238 237 236 236 237 239 240 239 239 238 238 236 235 236 238 240 242 245 246 244 243 243 243 243 243 244 244 244